This is the latest recevied weather packets stored in our database for station/object KO4APQ. If no packets are shown the sender has not sent any weather packets the latest 10 day(s).
| Time | Temp. | Humidity | Pressure | Rain* | Wind** | Luminosity | Snow |
|---|---|---|---|---|---|---|---|
| 1777558242 | 17.78° C | 87% | 1011.8 hPa | 0 mm | - | 230 W/m² | - |
| 1777557938 | 17.78° C | 88% | 1011.6 hPa | 0 mm | - | 190 W/m² | - |
| 1777557636 | 17.78° C | 87% | 1011.7 hPa | 0 mm | - | 213 W/m² | - |
| 1777557332 | 17.78° C | 86% | 1011.5 hPa | 0 mm | - | 268 W/m² | - |
| 1777557028 | 17.78° C | 85% | 1011.5 hPa | 0 mm | - | 267 W/m² | - |
| 1777556724 | 17.78° C | 87% | 1011.3 hPa | 0 mm | - | 104 W/m² | - |
| 1777556421 | 17.78° C | 85% | 1011.2 hPa | 0 mm | - | 224 W/m² | - |
| 1777556120 | 17.78° C | 87% | 1011.1 hPa | 0 mm | - | 319 W/m² | - |
| 1777555816 | 17.78° C | 87% | 1011 hPa | 0 mm | - | 256 W/m² | - |
| 1777555512 | 17.78° C | 88% | 1011 hPa | 0 mm | - | 466 W/m² | - |
| 1777555208 | 17.22° C | 90% | 1010.8 hPa | 0 mm | - | 210 W/m² | - |
| 1777554905 | 17.22° C | 89% | 1010.4 hPa | 0 mm | - | 380 W/m² | - |
| 1777554602 | 17.78° C | 88% | 1010.2 hPa | 0 mm | - | 157 W/m² | - |
| 1777554299 | 17.78° C | 89% | 1010.1 hPa | 0 mm | - | 187 W/m² | - |
| 1777553996 | 17.78° C | 85% | 1010.1 hPa | 0 mm | - | 135 W/m² | - |
| 1777553692 | 17.78° C | 92% | 1010.1 hPa | 0 mm | - | 359 W/m² | - |
| 1777553389 | 17.78° C | 91% | 1010.3 hPa | 0 mm | - | 277 W/m² | - |
| 1777553085 | 16.67° C | 95% | 1010.4 hPa | 0 mm | - | 308 W/m² | - |
| 1777552785 | 16.11° C | 95% | 1010.2 hPa | 0 mm | - | 225 W/m² | - |
| 1777552481 | 15.56° C | 95% | 1009.9 hPa | 0 mm | - | 92 W/m² | - |
| 1777552177 | 15.56° C | 95% | 1010 hPa | 0 mm | - | 91 W/m² | - |
| 1777551875 | 15.56° C | 95% | 1009.7 hPa | 0 mm | - | 89 W/m² | - |
| 1777551572 | 15.56° C | 95% | 1009.7 hPa | 0 mm | - | 48 W/m² | - |
| 1777551269 | 15.56° C | 95% | 1009.9 hPa | 0 mm | - | 36 W/m² | - |
| 1777550966 | 15.56° C | 94% | 1009.1 hPa | 0 mm | - | 20 W/m² | - |
* Rain latest hour (hover to see other rain measurements)
** Current wind speed in m/s (hover to see current wind gust speed)